Regional Weather Roundup
Issued by NWS Little Rock, AR

Home | Current Version | Previous Version | Graphics & Text | Print | Product List | Glossary On
Versions: 1 2 3 4 5 6 7 8 9 10 11 12 13 14 15 16 17 18 19 20 21 22 23 24 25 26 27 28 29 30 31 32 33 34 35 36 37 38 39 40 41 42 43 44 45 46 47 48 49 50
785
ASUS44 KLZK 252005
RWRLZK

WEATHER ROUNDUP FOR ARKANSAS
NATIONAL WEATHER SERVICE LITTLE ROCK AR
300 PM CDT TUE JUL 25 2017

NOTE: "FAIR" INDICATES FEW OR NO CLOUDS BELOW 12,000 FEET WITH NO
SIGNIFICANT WEATHER AND/OR OBSTRUCTIONS TO VISIBILITY.

ARZ001-003-010-029-252100-
NORTHWEST ARKANSAS

CITY           SKY/WX    TMP DP  RH WIND       PRES   REMARKS
FAYETTEVILLE   SUNNY     91  72  53 SE7       30.10F HX  98
FORT SMITH     MOSUNNY   95  71  45 CALM      30.05F HX 102
HARRISON       SUNNY     93  69  45 VRB5      30.11F HX  98
BENTONVILLE    MOSUNNY   93  70  46 S5        30.11F HX  99
ROGERS         MOSUNNY   91  71  51 SE8       30.11F HX  97
SILOAM SPGS    MOSUNNY   93  70  46 S10       30.09F HX  99
HIGHFILL       MOSUNNY   93  71  48 S7        30.10F HX 100
SPRINGDALE     MOSUNNY   91  70  49 S7G14     30.12F HX  97
$$

ARZ004-005-016-252100-
NORTH CENTRAL ARKANSAS

CITY           SKY/WX    TMP DP  RH WIND       PRES   REMARKS
BATESVILLE     MOSUNNY   90  73  58 W7G16     30.06F HX  98
FLIPPIN        MOSUNNY   91  68  46 CALM      30.06S HX  95
MTN HOME       MOSUNNY   94  71  47 SW8       30.07F HX 101
$$

ARZ040-041-252100-
WEST CENTRAL ARKANSAS

CITY           SKY/WX    TMP DP  RH WIND       PRES   REMARKS
MENA           SUNNY     95  73  49 S5        30.10F HX 105
MOUNT IDA      MOSUNNY   92  70  48 VRB6      30.07S HX  97
$$

ARZ009-017-025-026-028-252100-
NORTHEAST ARKANSAS

CITY           SKY/WX    TMP DP  RH WIND       PRES   REMARKS
CORNING        LGT RAIN  95  81  63 SE7       30.05F HX 115
JONESBORO      CLOUDY    93  78  61 N3        30.04F THUNDER HX 108
WALNUT RIDGE   PTSUNNY   97  73  46 N3        30.03  HX 107
BLYTHEVILLE    SUNNY     93  76  57 VRB7      30.06F HX 105
$$

ARZ022-023-033-042-044-252100-
CENTRAL ARKANSAS

CITY           SKY/WX    TMP DP  RH WIND       PRES   REMARKS
LITTLE ROCK    MOSUNNY   93  75  55 SW8       30.05F HX 104
N LITTLE ROCK    N/A     94  75  55 W5        30.04F HX 105
CONWAY           N/A     97  72  44 W7        30.03F HX 105
SEARCY         CLOUDY    93  78  61 MISG        N/A  HX 108
HOT SPRINGS    MOSUNNY   94  74  52 MISG      30.07F HX 104
RUSSELLVILLE   MOSUNNY   93  73  52 S5        30.05F HX 102
CLINTON        FAIR      95  73  49 VRB7      30.05F HX 105
$$

ARZ036-252100-
EAST ARKANSAS

CITY           SKY/WX    TMP DP  RH WIND       PRES   REMARKS
WEST MEMPHIS   SUNNY     93  77  59 S8        30.05F HX 107
$$

ARZ050-053-066-070-073-252100-
SOUTHWEST ARKANSAS

CITY           SKY/WX    TMP DP  RH WIND       PRES   REMARKS
ARKADELPHIA    FAIR      94  77  57 W9        30.07S HX 108
CAMDEN         MOSUNNY   97  73  46 S3        30.06F HX 107
TEXARKANA      SUNNY     92  72  51 SW7       30.08F HX  99
EL DORADO      SUNNY     94  72  48 SW9       30.08F HX 102
DE QUEEN       SUNNY     92  73  53 S8        30.06F HX 100
$$

ARZ056-057-069-252100-
SOUTHEAST ARKANSAS

CITY           SKY/WX    TMP DP  RH WIND       PRES   REMARKS
PINE BLUFF     MOSUNNY   93  75  55 SW7       30.06F HX 104
STUTTGART      SUNNY     95  64  36 SW6       30.07F HX  97
MONTICELLO     SUNNY     95  74  50 SW8       30.06F HX 105

$$






USA.gov is the U.S. government's official web portal to all federal, state and local government web resources and services.